Window Rock, AZ

7:06 AM MST on January 16, 2017 (GMT -0700)
Window Rock

Weather History for KRQE - January, 2013

Change the Weather History Date:

Thursday, January 10, 2013

  Actual Average Record
Temperature  
Mean Temperature 24 °F -  
Max Temperature 42 °F 42 °F 66 °F (1990)
Min Temperature 7 °F 13 °F -8 °F (1977)
Degree Days  
Heating Degree Days 40    
Moisture  
Dew Point 13 °F    
Average Humidity 63    
Maximum Humidity 92    
Minimum Humidity 35    
Precipitation  
Precipitation 0.00 in - - ()
Sea Level Pressure  
Sea Level Pressure 29.91 in    
Wind  
Wind Speed 4 mph (SSW)    
Max Wind Speed 22 mph    
Max Gust Speed 38 mph    
Visibility 10 miles    
Events Snow    
Averages and records for this station are not official NWS values.
T = Trace of Precipitation, MM = Missing Value Source: NWS Daily Summary

Daily Weather History Graph

Daily Weather History Graph

Search for Another Location

Airport or City:

Trip Planner

Search our weather history database for the weather conditions in past years. The results will help you decide how hot, cold, wet, or windy it might be!

Date:

Astronomy

Jan. 10, 2013 Rise Set
Actual Time 7:26 AM MST 5:21 PM MST
Civil Twilight 6:58 AM MST 5:49 PM MST
Nautical Twilight 6:26 AM MST 6:21 PM MST
Astronomical Twilight 5:55 AM MST 6:52 PM MST
Moon 6:09 AM MST (1/10) 4:32 PM MST (1/10)
Length of Visible Light 10h 51m
Length of Day
9h 55m
Waning Crescent, 2% of the Moon is Illuminated
Jan 10
Waning Crescent
Jan 11
New
Jan 18
First Quarter
Jan 26
Full
Feb 3
Last Quarter

Hourly Weather History & Observations

Time (MST) Temp. Windchill Dew Point Humidity Pressure Visibility Wind Dir Wind Speed Gust Speed Precip Events Conditions
12:53 AM 10.9 °F - 8.1 °F 88% 30.13 in 10.0 mi Calm Calm - N/A   Clear
1:53 AM 7.0 °F - 5.0 °F 92% 30.12 in 10.0 mi Calm Calm - N/A   Clear
2:53 AM 8.1 °F - 5.0 °F 87% 30.10 in 10.0 mi Calm Calm - N/A   Clear
3:53 AM 10.0 °F - 6.1 °F 84% 30.05 in 10.0 mi Calm Calm - N/A   Clear
4:53 AM 8.1 °F - 5.0 °F 87% 30.05 in 10.0 mi Calm Calm - N/A   Clear
5:53 AM 9.0 °F - 6.1 °F 88% 30.06 in 10.0 mi Calm Calm - N/A   Clear
6:53 AM 10.0 °F - 6.1 °F 84% 30.09 in 10.0 mi Calm Calm - N/A   Clear
7:53 AM 10.9 °F 4.7 °F 7.0 °F 84% 30.10 in 10.0 mi North 3.5 mph - N/A   Clear
8:53 AM 16.0 °F - 12.0 °F 84% 30.06 in 10.0 mi Calm Calm - N/A   Clear
9:53 AM 23.0 °F - 17.1 °F 78% 30.06 in 5.0 mi Calm Calm - N/A   Haze
10:53 AM 37.9 °F 33.5 °F 12.9 °F 36% 29.97 in 10.0 mi South 5.8 mph - N/A   Clear
11:53 AM 39.9 °F 36.7 °F 14.0 °F 35% 29.92 in 10.0 mi South 4.6 mph - N/A   Partly Cloudy
12:53 PM 39.9 °F 35.1 °F 15.1 °F 36% 29.88 in 10.0 mi SSW 6.9 mph - N/A   Clear
1:53 PM 39.9 °F 35.1 °F 16.0 °F 38% 29.87 in 10.0 mi SSW 6.9 mph - N/A   Clear
2:53 PM 39.9 °F 32.9 °F 16.0 °F 38% 29.86 in 10.0 mi SSW 11.5 mph 18.4 mph N/A   Clear
3:53 PM 42.1 °F 35.7 °F 16.0 °F 35% 29.82 in 10.0 mi SSW 11.5 mph - N/A   Overcast
4:53 PM 39.0 °F 34.0 °F 16.0 °F 39% 29.81 in 10.0 mi SSW 6.9 mph - N/A   Scattered Clouds
5:53 PM 39.0 °F 30.3 °F 16.0 °F 39% 29.81 in 10.0 mi SW 16.1 mph 20.7 mph N/A   Overcast
6:53 PM 37.0 °F 29.3 °F 18.0 °F 46% 29.79 in 9.0 mi SSW 11.5 mph 19.6 mph 0.00 in Snow Light Snow
7:53 PM 37.0 °F 27.4 °F 18.0 °F 46% 29.76 in 10.0 mi SSW 17.3 mph 23.0 mph 0.00 in   Overcast
8:53 PM 35.1 °F 25.9 °F 18.0 °F 50% 29.72 in 10.0 mi SSW 13.8 mph 20.7 mph N/A   Overcast
9:53 PM 33.1 °F 20.9 °F 21.9 °F 64% 29.69 in 10.0 mi SSW 21.9 mph 34.5 mph N/A   Partly Cloudy
10:53 PM 32.0 °F 19.8 °F 24.1 °F 73% 29.62 in 10.0 mi SSW 20.7 mph 38.0 mph N/A   Mostly Cloudy
11:53 PM 30.9 °F 19.1 °F 24.1 °F 76% 29.58 in 10.0 mi South 18.4 mph 28.8 mph N/A   Overcast